Santa Ynez, CA

7:15 AM PST on December 07, 2016 (GMT -0800)
Santa Ynez

Weather History for KIZA - November, 2013

Change the Weather History Date:

Friday, November 8, 2013

  Actual Average (KSBA) Record (KSBA)
Temperature  
Mean Temperature 58 °F 58 °F  
Max Temperature 82 °F 70 °F 93 °F (1956)
Min Temperature 35 °F 46 °F 37 °F (1990)
Degree Days  
Heating Degree Days 6 7  
Month to date heating degree days 52  
Since 1 July heating degree days 269  
Cooling Degree Days 0 0  
Month to date cooling degree days 0  
Year to date cooling degree days 186  
Growing Degree Days 8 (Base 50)    
Moisture  
Dew Point 34 °F    
Average Humidity 52    
Maximum Humidity 81    
Minimum Humidity 10    
Precipitation  
Precipitation 0.00 in 0.04 in 3.70 in (2002)
Month to date precipitation 0.38  
Year to date precipitation 13.65  
Sea Level Pressure  
Sea Level Pressure 29.99 in    
Wind  
Wind Speed 2 mph (WNW)    
Max Wind Speed 10 mph    
Max Gust Speed -    
Visibility 10 miles    
Events      
T = Trace of Precipitation, MM = Missing Value Source: NWS Daily Summary

Daily Weather History Graph

Daily Weather History Graph

Search for Another Location

Airport or City:

Trip Planner

Search our weather history database for the weather conditions in past years. The results will help you decide how hot, cold, wet, or windy it might be!

Date:

Astronomy

Nov. 08, 2013 Rise Set
Actual Time 6:27 AM PST 5:00 PM PST
Civil Twilight 6:01 AM PST 5:26 PM PST
Nautical Twilight 5:31 AM PST 5:56 PM PST
Astronomical Twilight 5:01 AM PST 6:26 PM PST
Moon 11:27 AM PST (11/8) 10:25 PM PST (11/8)
Length of Visible Light 11h 25m
Length of Day
10h 32m
Waxing Crescent, 34% of the Moon is Illuminated
Nov 8
Waxing Crescent
Nov 9
First Quarter
Nov 17
Full
Nov 25
Last Quarter
Dec 2
New

Hourly Weather History & Observations

Time (PST) Temp. Windchill Dew Point Humidity Pressure Visibility Wind Dir Wind Speed Gust Speed Precip Events Conditions
12:15 AM 42.8 °F 40.1 °F 33.8 °F 70% 30.04 in 10.0 mi ENE 4.6 mph - N/A   Clear
12:35 AM 42.8 °F - 33.8 °F 70% 30.04 in 10.0 mi Calm Calm - N/A   Clear
12:55 AM 42.8 °F - 33.8 °F 70% 30.04 in 10.0 mi Calm Calm - N/A   Clear
1:15 AM 42.8 °F - 33.8 °F 70% 30.04 in 10.0 mi Calm Calm - N/A   Clear
1:35 AM 42.8 °F - 33.8 °F 70% 30.03 in 10.0 mi Calm Calm - N/A   Clear
1:55 AM 41.0 °F - 33.8 °F 76% 30.03 in 10.0 mi Calm Calm - N/A   Clear
2:15 AM 42.8 °F - 32.0 °F 66% 30.02 in 10.0 mi Calm Calm - N/A   Clear
2:35 AM 39.2 °F - 32.0 °F 75% 30.02 in 10.0 mi Calm Calm - N/A   Clear
2:55 AM 39.2 °F - 32.0 °F 75% 30.01 in 10.0 mi Calm Calm - N/A   Clear
3:15 AM 41.0 °F - 32.0 °F 70% 30.01 in 10.0 mi Calm Calm - N/A   Clear
3:35 AM 41.0 °F - 32.0 °F 70% 30.01 in 10.0 mi Calm Calm - N/A   Clear
3:55 AM 41.0 °F - 32.0 °F 70% 30.01 in 10.0 mi Calm Calm - N/A   Clear
4:15 AM 39.2 °F - 32.0 °F 75% 30.01 in 10.0 mi Calm Calm - N/A   Clear
4:35 AM 41.0 °F - 30.2 °F 65% 30.00 in 10.0 mi Calm Calm - N/A   Clear
4:55 AM 39.2 °F - 30.2 °F 70% 30.00 in 10.0 mi Calm Calm - N/A   Clear
5:15 AM 37.4 °F - 32.0 °F 81% 30.00 in 10.0 mi Calm Calm - N/A   Clear
5:35 AM 37.4 °F - 32.0 °F 81% 30.00 in 10.0 mi Calm Calm - N/A   Clear
5:55 AM 39.2 °F - 30.2 °F 70% 30.00 in 10.0 mi Calm Calm - N/A   Clear
6:15 AM 35.6 °F 30.7 °F 30.2 °F 81% 30.01 in 10.0 mi NE 5.8 mph - N/A   Clear
6:35 AM 37.4 °F - 30.2 °F 75% 30.01 in 10.0 mi Calm Calm - N/A   Clear
6:55 AM 39.2 °F - 30.2 °F 70% 30.02 in 10.0 mi Calm Calm - N/A   Clear
7:15 AM 37.4 °F - 30.2 °F 75% 30.02 in 10.0 mi Calm Calm - N/A   Clear
7:35 AM 41.0 °F - 32.0 °F 70% 30.02 in 10.0 mi Calm Calm - N/A   Clear
7:55 AM 46.4 °F - 32.0 °F 57% 30.03 in 10.0 mi Calm Calm - N/A   Clear
8:15 AM 48.2 °F - 32.0 °F 54% 30.03 in 10.0 mi Calm Calm - N/A   Clear
8:35 AM 50.0 °F - 30.2 °F 47% 30.03 in 10.0 mi Calm Calm - N/A   Clear
8:55 AM 53.6 °F - 30.2 °F 41% 30.03 in 10.0 mi Calm Calm - N/A   Clear
9:15 AM 55.4 °F - 30.2 °F 38% 30.02 in 10.0 mi Calm Calm - N/A   Clear
9:35 AM 59.0 °F - 28.4 °F 31% 30.02 in 10.0 mi West 3.5 mph - N/A   Clear
9:55 AM 62.6 °F - 30.2 °F 30% 30.02 in 10.0 mi Calm Calm - N/A   Clear
10:15 AM 64.4 °F - 30.2 °F 28% 30.01 in 10.0 mi West 3.5 mph - N/A   Clear
10:35 AM 69.8 °F - 30.2 °F 23% 30.01 in 10.0 mi WSW 3.5 mph - N/A   Clear
10:55 AM 71.6 °F - 26.6 °F 19% 30.00 in 10.0 mi West 4.6 mph - N/A   Clear
11:15 AM 75.2 °F - 26.6 °F 17% 30.00 in 10.0 mi Calm Calm - N/A   Clear
11:35 AM 77.0 °F - 26.6 °F 16% 29.99 in 10.0 mi West 6.9 mph - N/A   Clear
11:55 AM 78.8 °F - 28.4 °F 16% 29.98 in 10.0 mi West 6.9 mph - N/A   Clear
12:15 PM 78.8 °F - 26.6 °F 15% 29.97 in 10.0 mi West 6.9 mph - N/A   Clear
12:35 PM 80.6 °F - 23.0 °F 12% 29.96 in 10.0 mi SW 8.1 mph - N/A   Clear
12:55 PM 80.6 °F - 23.0 °F 12% 29.95 in 10.0 mi WNW 6.9 mph - N/A   Clear
1:15 PM 82.4 °F - 19.4 °F 10% 29.94 in 10.0 mi West 9.2 mph - N/A   Clear
1:35 PM 82.4 °F - 23.0 °F 11% 29.93 in 10.0 mi West 4.6 mph - N/A   Clear
1:55 PM 80.6 °F - 26.6 °F 14% 29.93 in 10.0 mi West 10.4 mph - N/A   Clear
2:15 PM 80.6 °F - 26.6 °F 14% 29.92 in 10.0 mi NW 4.6 mph - N/A   Clear
2:35 PM 80.6 °F - 28.4 °F 15% 29.92 in 10.0 mi West 9.2 mph - N/A   Clear
2:55 PM 80.6 °F - 30.2 °F 16% 29.92 in 10.0 mi West 9.2 mph - N/A   Clear
3:15 PM 78.8 °F - 33.8 °F 20% 29.92 in 10.0 mi WNW 10.4 mph - N/A   Clear
3:35 PM 77.0 °F - 35.6 °F 22% 29.92 in 10.0 mi West 9.2 mph - N/A   Clear
3:55 PM 75.2 °F - 37.4 °F 25% 29.92 in 10.0 mi WNW 10.4 mph - N/A   Clear
4:15 PM 73.4 °F - 37.4 °F 27% 29.92 in 10.0 mi WNW 9.2 mph - N/A   Clear
4:35 PM 71.6 °F - 41.0 °F 33% 29.93 in 10.0 mi WNW 6.9 mph - N/A   Clear
4:55 PM 68.0 °F - 42.8 °F 40% 29.93 in 10.0 mi West 5.8 mph - N/A   Clear
5:15 PM 62.6 °F - 44.6 °F 52% 29.94 in 10.0 mi WSW 6.9 mph - N/A   Clear
5:35 PM 60.8 °F - 44.6 °F 55% 29.95 in 10.0 mi West 4.6 mph - N/A   Clear
5:55 PM 60.8 °F - 44.6 °F 55% 29.95 in 10.0 mi West 8.1 mph - N/A   Clear
6:15 PM 59.0 °F - 44.6 °F 59% 29.96 in 10.0 mi Calm Calm - N/A   Clear
6:35 PM 59.0 °F - 44.6 °F 59% 29.97 in 10.0 mi Calm Calm - N/A   Clear
6:55 PM 57.2 °F - 44.6 °F 63% 29.97 in 10.0 mi Calm Calm - N/A   Clear
7:15 PM 55.4 °F - 44.6 °F 67% 29.97 in 10.0 mi Calm Calm - N/A   Clear
7:35 PM 55.4 °F - 44.6 °F 67% 29.98 in 10.0 mi Calm Calm - N/A   Clear
7:55 PM 55.4 °F - 44.6 °F 67% 29.98 in 10.0 mi Calm Calm - N/A   Clear
8:15 PM 51.8 °F - 41.0 °F 67% 29.98 in 10.0 mi Calm Calm - N/A   Clear
8:35 PM 53.6 °F - 42.8 °F 67% 29.98 in 10.0 mi Calm Calm - N/A   Clear
8:55 PM 51.8 °F - 41.0 °F 67% 29.99 in 10.0 mi Calm Calm - N/A   Clear
9:15 PM 50.0 °F - 41.0 °F 71% 29.99 in 10.0 mi Calm Calm - N/A   Clear
9:35 PM 46.4 °F 44.3 °F 39.2 °F 76% 29.99 in 10.0 mi NNE 4.6 mph - N/A   Clear
9:55 PM 48.2 °F - 39.2 °F 71% 29.99 in 10.0 mi Calm Calm - N/A   Clear
10:15 PM 46.4 °F 45.2 °F 37.4 °F 71% 30.00 in 10.0 mi NE 3.5 mph - N/A   Clear
10:35 PM 48.2 °F - 37.4 °F 66% 29.99 in 10.0 mi Calm Calm - N/A   Clear
10:55 PM 46.4 °F - 37.4 °F 71% 29.99 in 10.0 mi Calm Calm - N/A   Clear
11:15 PM 44.6 °F - 37.4 °F 76% 29.99 in 10.0 mi Calm Calm - N/A   Clear
11:35 PM 44.6 °F - 35.6 °F 71% 29.99 in 10.0 mi Calm Calm - N/A   Clear
11:55 PM 44.6 °F - 37.4 °F 76% 29.99 in 10.0 mi Calm Calm - N/A   Clear